Location: Axtheid
(49.6213°N, 11.8205°E)
Time: 00:43:15
(UTC+00:00)

Cosmos 482 Debris - Pass Details

Date: 18 February 2020
Orbit: 200 x 2280 km, 52.1° (Epoch: 04 April)

Event Time Altitude Azimuth Distance (km) Brightness Sun altitude
Exits shadow 04:42:21 29° 135° (SE) 406 4.1 -16.1°
Drops below altitude 10° 04:43:25 10° 123° (ESE) 864 6.2 -16.0°
Sets 04:45:10 0° 118° (ESE) 1,678 7.9 -15.7°
